DateTime,DeltaTime,Roll,TargetAngle,Position,Power
2022-06-03 10:21:29.194,0,-0.21,-3.73,3,16.59
2022-06-03 10:21:29.309,0.114996358752251,0.46,1.68,4,3.3
2022-06-03 10:21:29.424,0.230002775788307,0.01,-4.9,7,45.85
2022-06-03 10:21:29.538,0.344003364443779,0.42,0.36,7,21.55
2022-06-03 10:21:29.652,0.458003953099251,-0.18,-6.27,10,58.27
2022-06-03 10:21:29.767,0.573000311851501,0.24,-0.23,5,33.77
2022-06-03 10:21:29.882,0.687996670603752,0.23,-2.12,3,23.12
2022-06-03 10:21:29.997,0.803003087639809,-0.0299999999999999,-4.2,3,28.3
2022-06-03 10:21:30.111,0.91700367629528,-0.39,-5.96,2,37.63
2022-06-03 10:21:30.226,1.03200003504753,-0.33,-3.96,3,21.12
2022-06-03 10:21:30.341,1.14699639379978,0.26,0.59,4,7.86
2022-06-03 10:21:30.455,1.26099698245525,-0.21,-5.8,7,49.72
2022-06-03 10:21:30.570,1.37600339949131,0.04,-1.69,8,30.61
2022-06-03 10:21:30.680,1.48600079119205,-0.63,-8.26,8,70.74
2022-06-03 10:21:30.795,1.60099714994431,-0.0299999999999999,-0.41,6,20.77
2022-06-03 10:21:30.909,1.71499773859978,-0.11,-3.71,4,38.3
2022-06-03 10:21:31.025,1.83099992573261,-0.28,-4.73,2,32.58
2022-06-03 10:21:31.139,1.94500051438808,-0.59,-6.54,2,33.72
2022-06-03 10:21:31.254,2.05999687314034,-0.3,-2.83,0,16.18
2022-06-03 10:21:31.369,2.17500329017639,0.15,-0.41,4,-0.6
2022-06-03 10:21:31.484,2.28999964892864,-0.36,-6.51,6,55.75
2022-06-03 10:21:31.598,2.40400023758411,-0.23,-3.25,7,32.47
2022-06-03 10:21:31.712,2.51800082623959,-0.66,-7.3,7,60.29
2022-06-03 10:21:31.827,2.63299718499184,0.02,0.14,6,15.58
2022-06-03 10:21:31.943,2.74899937212467,-0.14,-4.17,5,42.49
2022-06-03 10:21:32.057,2.86299996078014,-0.24,-4.27,3,34.58
2022-06-03 10:21:32.171,2.97700054943562,-0.5,-5.99,2,35.25
2022-06-03 10:21:32.283,3.08899953961372,-0.15,-1.96,2,11.26
2022-06-03 10:21:32.396,3.20200435817242,0.15,-1.08,3,13.81
2022-06-03 10:21:32.511,3.31700071692467,-0.35,-6.44,6,47.06
2022-06-03 10:21:32.626,3.43199707567692,-0.36,-4.34,8,39.33
2022-06-03 10:21:32.741,3.54700349271297,-0.74,-7.34,8,64.12
2022-06-03 10:21:32.855,3.66100408136845,0.0700000000000001,0.83,7,15.78
2022-06-03 10:21:32.971,3.77699621021748,-0.19,-4.78,5,50.17
2022-06-03 10:21:33.085,3.89099679887295,-0.31,-4.61,4,32.65
2022-06-03 10:21:33.199,4.00499738752842,-0.56,-6.13,2,38.95
2022-06-03 10:21:33.314,4.12000380456448,-0.27,-2.71,2,12.07
2022-06-03 10:21:33.430,4.23599593341351,0.16,-0.46,3,8.38
2022-06-03 10:21:33.543,4.3490007519722,-0.36,-6.61,6,47.32
2022-06-03 10:21:33.658,4.46399711072445,-0.28,-3.64,7,35.63
2022-06-03 10:21:33.773,4.57900352776051,-0.73,-7.64,7,61.47
2022-06-03 10:21:33.888,4.69399988651276,0.03,0.5,7,13.34
2022-06-03 10:21:33.998,4.8039972782135,-0.15,-4.34,6,48.81
2022-06-03 10:21:34.112,4.91799786686897,-0.25,-4.3,4,36.66
2022-06-03 10:21:34.227,5.03300428390503,-0.57,-6.5,3,39.98
2022-06-03 10:21:34.343,5.14899641275406,-0.37,-3.43,1,20.29
2022-06-03 10:21:34.457,5.26299700140953,0.0700000000000001,-0.8,2,3.05
2022-06-03 10:21:34.571,5.376997590065,-0.5,-7.32,5,46.95
2022-06-03 10:21:34.686,5.49200400710106,-0.29,-3.13,6,28.45
2022-06-03 10:21:34.801,5.60700036585331,-0.9,-8.9,8,64.62
2022-06-03 10:21:34.915,5.72100095450878,-0.29,-1.35,8,27.24
2022-06-03 10:21:35.031,5.83700314164162,-0.35,-4.52,7,51.21
2022-06-03 10:21:35.144,5.9499979019165,-0.4,-4.68,5,42.02
2022-06-03 10:21:35.259,6.06500431895256,-0.79,-7.57,3,48.65
2022-06-03 10:21:35.374,6.18000067770481,-0.71,-5.25,2,24.81
2022-06-03 10:21:35.489,6.29499703645706,-0.27,-2.05,2,10.17
2022-06-03 10:21:35.603,6.40899762511253,-0.5,-5.79,3,34.8
2022-06-03 10:21:35.714,6.52000084519386,-0.53,-5.07,4,31.98
2022-06-03 10:21:35.829,6.63499720394611,-0.62,-5.61,7,40.07
2022-06-03 10:21:35.943,6.74899779260159,-0.49,-4.26,12,47.17
2022-06-03 10:21:36.058,6.86400420963764,0.03,-0.56,7,48.07
2022-06-03 10:21:36.172,6.97800479829311,-0.22,-4.9,5,43.06
2022-06-03 10:21:36.287,7.09300115704536,-0.38,-5.05,4,35.75
2022-06-03 10:21:36.403,7.2090033441782,-0.56,-5.81,2,37.93
2022-06-03 10:21:36.517,7.32300393283367,-0.29,-2.87,4,14.41
2022-06-03 10:21:36.632,7.43800029158592,0.0600000000000001,-1.16,3,22.78
2022-06-03 10:21:36.746,7.55200088024139,-0.51,-7.33,4,48.72
2022-06-03 10:21:36.861,7.66699723899364,-0.27,-2.91,7,21.04
2022-06-03 10:21:36.976,7.7820036560297,-1,-9.89,8,76.07
2022-06-03 10:21:37.090,7.89600424468517,-0.45,-2.22,7,28.98
2022-06-03 10:21:37.205,8.01100060343742,-0.45,-4.66,7,45.85
2022-06-03 10:21:37.319,8.1250011920929,-0.49,-4.92,5,44.37
2022-06-03 10:21:37.431,8.237000182271,-0.79,-7.19,3,46.46
2022-06-03 10:21:37.545,8.35100077092648,-0.88,-6.64,2,32.24
2022-06-03 10:21:37.660,8.46599712967873,-0.4,-2.3,2,9.76
2022-06-03 10:21:37.774,8.5799977183342,-0.38,-4.3,3,27.13
2022-06-03 10:21:37.889,8.69500413537025,-0.71,-7.04,5,43.82
2022-06-03 10:21:38.003,8.80900472402573,-0.68,-5.35,8,41.37
2022-06-03 10:21:38.118,8.92400108277798,-1.12,-9,7,75.19
2022-06-03 10:21:38.233,9.03899744153023,-0.51,-2.17,6,23.6
2022-06-03 10:21:38.347,9.1529980301857,-0.53,-5.01,6,43.91
2022-06-03 10:21:38.463,9.26900021731853,-0.65,-5.88,3,46.84
2022-06-03 10:21:38.577,9.38300080597401,-0.96,-7.91,3,38.98
2022-06-03 10:21:38.692,9.49799716472626,-0.96,-6.53,2,34.37
2022-06-03 10:21:38.806,9.61199775338173,-0.21,-0.48,3,1.77
2022-06-03 10:21:38.922,9.72799994051456,-0.36,-4.96,5,38.66
2022-06-03 10:21:39.036,9.84200052917004,-0.48,-5.24,7,43.64
2022-06-03 10:21:39.146,9.95199792087078,-0.56,-5.42,7,52.45
2022-06-03 10:21:39.261,10.0670043379068,-0.64,-5.67,7,47.11
2022-06-03 10:21:39.375,10.1810049265623,-0.33,-2.8,6,32.43
2022-06-03 10:21:39.490,10.2960012853146,-0.23,-3.4,4,35.08
2022-06-03 10:21:39.604,10.41000187397,-0.54,-6.29,3,40.89
2022-06-03 10:21:39.719,10.5249982327223,-0.86,-7.58,2,42.15
2022-06-03 10:21:39.834,10.6400046497583,-0.98,-7.08,3,35.19
2022-06-03 10:21:39.949,10.7550010085106,-0.25,-0.69,4,11.07
2022-06-03 10:21:40.064,10.8699973672628,-0.39,-5.05,6,45.28
2022-06-03 10:21:40.179,10.9850037842989,-0.46,-4.91,7,42.73
2022-06-03 10:21:40.293,11.0990043729544,-0.61,-5.88,7,51.11
2022-06-03 10:21:40.408,11.2140007317066,-0.6,-5.14,6,43.83
2022-06-03 10:21:40.523,11.3289970904589,-0.29,-2.71,5,28.77
2022-06-03 10:21:40.637,11.4429976791143,-0.16,-2.96,3,30.31
2022-06-03 10:21:40.752,11.5580040961504,-0.36,-5.18,3,33.12
2022-06-03 10:21:40.862,11.6680014878511,-0.57,-6.01,3,37.74
2022-06-03 10:21:40.977,11.7829978466034,-0.85,-7.33,4,44.06
2022-06-03 10:21:41.092,11.8980042636395,-0.2,-0.87,5,15.98
2022-06-03 10:21:41.206,12.0120048522949,-0.14,-3.17,6,40.06
2022-06-03 10:21:41.321,12.1270012110472,-0.31,-4.89,7,50.14
2022-06-03 10:21:41.435,12.2410017997026,-0.47,-5.35,6,47.48
2022-06-03 10:21:41.551,12.3570039868355,-0.47,-4.75,6,37.61
2022-06-03 10:21:41.665,12.471004575491,-0.22,-2.64,4,30.11
2022-06-03 10:21:41.779,12.5850051641464,-0.16,-3.27,3,26.83
2022-06-03 10:21:41.894,12.7000015228987,-0.36,-5.22,3,34.01
2022-06-03 10:21:42.009,12.8149978816509,-0.32,-3.96,3,27.25
2022-06-03 10:21:42.124,12.930004298687,-0.71,-7.28,4,46.11
2022-06-03 10:21:42.238,13.0440048873425,-0.17,-1.23,5,12.7
2022-06-03 10:21:42.353,13.1590012460947,-0.0499999999999999,-2.6,6,31.65
2022-06-03 10:21:42.469,13.2750034332275,-0.22,-4.49,7,43.68
2022-06-03 10:21:42.578,13.3840050548315,-0.43,-5.52,6,51
2022-06-03 10:21:42.693,13.4990014135838,-0.56,-5.61,4,41.67
2022-06-03 10:21:42.808,13.613997772336,-0.37,-3.45,4,23.11
2022-06-03 10:21:42.922,13.7279983609915,-0.21,-3.09,3,27.42
2022-06-03 10:21:43.037,13.8430047780275,-0.56,-6.53,3,40.76
2022-06-03 10:21:43.152,13.9580011367798,-0.34,-3.3,4,22.27
2022-06-03 10:21:43.266,14.0720017254353,-0.81,-8,5,55.62
2022-06-03 10:21:43.381,14.1869980841875,-0.38,-2.45,6,21.54
2022-06-03 10:21:43.496,14.3020045012236,-0.09,-2.01,6,30.96
2022-06-03 10:21:43.611,14.4170008599758,-0.3,-5.04,6,46.16
2022-06-03 10:21:43.725,14.5310014486313,-0.41,-4.95,5,40.31
2022-06-03 10:21:43.840,14.6459978073835,-0.58,-5.87,4,41
2022-06-03 10:21:43.954,14.759998396039,-0.34,-3.13,4,23.39
2022-06-03 10:21:44.070,14.8760005831718,0.03,-1.23,3,19.47
2022-06-03 10:21:44.183,14.9889953434467,-0.34,-5.85,4,40.55
2022-06-03 10:21:44.294,15.0999985635281,-0.13,-2.51,5,24.9
2022-06-03 10:21:44.409,15.2150049805641,-0.5,-6.43,5,53.19
2022-06-03 10:21:44.524,15.3300013393164,-0.25,-2.82,6,24.11
2022-06-03 10:21:44.639,15.4449976980686,0.0800000000000001,-1.24,5,26.67
2022-06-03 10:21:44.753,15.5589982867241,-0.19,-4.82,4,41.03
2022-06-03 10:21:44.868,15.6740047037601,-0.23,-3.98,4,29.32
2022-06-03 10:21:44.983,15.7890010625124,-0.66,-7.26,4,48.88
2022-06-03 10:21:45.097,15.9030016511679,-0.57,-4.7,4,28.76
2022-06-03 10:21:45.212,16.0179980099201,-0.0599999999999999,-0.97,4,14.25
2022-06-03 10:21:45.327,16.1330044269562,-0.36,-5.62,4,42.86
2022-06-03 10:21:45.441,16.2470050156116,-0.25,-3.37,6,26.4
2022-06-03 10:21:45.556,16.3620013743639,-0.57,-6.47,6,55.53
2022-06-03 10:21:45.670,16.4760019630194,-0.53,-4.72,5,37.27
2022-06-03 10:21:45.785,16.5909983217716,-0.11,-1.56,5,19.74
2022-06-03 10:21:45.900,16.7060047388077,-0.26,-4.59,4,40.95
2022-06-03 10:21:46.010,16.8160021305084,-0.26,-3.92,4,29.5
2022-06-03 10:21:46.124,16.9300027191639,-0.55,-6.28,4,44.25
2022-06-03 10:21:46.239,17.0449990779161,-0.62,-5.55,5,38.4
2022-06-03 10:21:46.354,17.1599954366684,-0.08,-0.86,5,21.81
2022-06-03 10:21:46.469,17.2750018537045,-0.14,-3.74,6,41.55
2022-06-03 10:21:46.583,17.3890024423599,-0.18,-3.84,5,44.09
2022-06-03 10:21:46.698,17.5039988011122,-0.42,-5.57,4,47.22
2022-06-03 10:21:46.813,17.6190052181482,-0.5,-5.12,5,31.74
2022-06-03 10:21:46.928,17.7340015769005,-0.07,-1.39,4,20.85
2022-06-03 10:21:47.042,17.848002165556,-0.2,-4.21,4,34.13
2022-06-03 10:21:47.157,17.9629985243082,-0.28,-4.39,5,33.36
2022-06-03 10:21:47.272,18.0780049413443,-0.43,-5.21,5,43
2022-06-03 10:21:47.386,18.1919954717159,-0.54,-5.41,4,42.58
2022-06-03 10:21:47.501,18.307001888752,-0.0199999999999999,-0.75,5,14.93
2022-06-03 10:21:47.616,18.4219982475042,-0.13,-3.9,5,43.54
2022-06-03 10:21:47.725,18.5309998691082,-0.18,-3.89,5,38.86
2022-06-03 10:21:47.841,18.647002056241,-0.43,-5.62,4,48.34
2022-06-03 10:21:47.956,18.7619984149933,-0.52,-5.3,4,32.58
2022-06-03 10:21:48.071,18.8770048320293,-0.13,-1.72,4,17.3
2022-06-03 10:21:48.185,18.990995362401,-0.22,-4.16,4,34.69
